Date String (YYYY-MM-DD hh:mm:ss) UTC,Instrument flags,Ambient pressure (hPa),Sample flow (lpm),Bypass flow (lpm),Sample temperature (°C),Ambient temperature (°C),ASC tube jacket temperature (°C),LED temperature (°C),Box temperature (°C),Sample RH (%),Span deviation,Mass concentration (μg/m³),Mass concentration (μg/m³),Mass concentration (μg/m³)
DateTimeUTC,F1_M11,P_M11,Q1_M11,Q2_M11,T1_M11,T2_M11,T3_M11,T4_M11,T5_M11,U1_M11,ZSPAN_M11,X0_M11,X2_M11,X1_M11
2023-01-10 11:00:00,,0817.9,5.00,0.00,21.9,20.5,00.0,30.7,23.6,17.1,0000.0,0000.41,0000.19,0000.14
2023-01-10 11:01:00,,0818.0,5.00,0.00,21.8,20.4,00.0,30.7,23.6,17.5,0000.0,0000.41,0000.19,0000.14
2023-01-10 11:02:00,,0818.0,5.00,0.00,21.8,20.4,00.0,30.7,23.5,17.8,0000.0,0000.40,0000.18,0000.13
2023-01-10 11:03:00,,0818.0,4.99,0.00,21.8,20.3,00.0,30.7,23.4,18.1,0000.0,0000.40,0000.18,0000.13
2023-01-10 11:04:00,,0817.9,5.00,0.00,21.8,20.2,00.0,30.7,23.4,17.5,0000.0,0001.74,0000.17,0000.13
2023-01-10 11:05:00,,0818.0,5.01,0.00,21.8,20.3,00.0,30.7,23.4,16.0,0000.0,0001.79,0000.19,0000.15
2023-01-10 11:06:00,,0818.0,5.00,0.00,21.8,20.2,00.0,30.7,23.4,14.4,0000.0,0001.88,0000.26,0000.20
2023-01-10 11:07:00,,0818.0,5.01,0.00,21.7,20.2,00.0,30.7,23.4,14.8,0000.0,0001.95,0000.32,0000.26
2023-01-10 11:08:00,,0818.0,5.01,0.00,21.7,20.2,00.0,30.7,23.4,14.5,0000.0,0002.09,0000.41,0000.31
2023-01-10 11:09:00,,0818.0,4.99,0.00,21.7,20.2,00.0,30.7,23.4,14.5,0000.0,0002.19,0000.49,0000.37
2023-01-10 11:10:00,,0818.0,5.00,0.00,21.7,20.2,00.0,30.7,23.4,14.6,0000.0,0002.30,0000.57,0000.43
2023-01-10 11:11:00,,0818.0,5.01,0.00,21.8,20.8,00.0,30.6,23.5,14.9,0000.0,0002.42,0000.66,0000.48
2023-01-10 11:12:00,,0818.0,5.00,0.00,21.9,22.0,00.0,30.6,23.8,14.7,0000.0,0002.55,0000.74,0000.55
2023-01-10 11:13:00,,0817.9,4.99,0.00,22.0,22.4,00.0,30.7,24.0,14.3,0000.0,0002.69,0000.84,0000.62
2023-01-10 11:14:00,,0817.9,4.98,0.00,22.1,22.2,00.0,30.7,24.0,14.3,0000.0,0002.78,0000.91,0000.70
2023-01-10 11:15:00,,0817.9,5.01,0.00,22.1,21.9,00.0,30.8,24.0,14.3,0000.0,0001.79,0001.00,0000.76
2023-01-10 11:16:00,,0817.9,5.00,0.00,22.1,21.7,00.0,30.8,24.0,14.4,0000.0,0001.96,0001.05,0000.80
2023-01-10 11:17:00,,0817.9,5.02,0.00,22.1,21.5,00.0,30.8,24.0,14.2,0000.0,0002.10,0001.09,0000.82
2023-01-10 11:18:00,,0818.0,4.99,0.00,22.1,21.4,00.0,30.8,24.0,14.2,0000.0,0002.17,0001.12,0000.85
2023-01-10 11:19:00,,0818.0,5.00,0.00,22.1,21.3,00.0,30.9,24.0,14.1,0000.0,0002.17,0001.13,0000.87
2023-01-10 11:20:00,,0818.0,5.00,0.00,22.1,21.2,00.0,30.9,23.9,14.8,0000.0,0002.19,0001.13,0000.87
2023-01-10 11:21:00,,0817.9,5.00,0.00,22.1,21.0,00.0,30.9,23.8,15.1,0000.0,0002.08,0001.10,0000.86
2023-01-10 11:22:00,,0817.8,5.00,0.00,22.1,20.8,00.0,30.9,23.8,15.5,0000.0,0001.95,0001.03,0000.83
2023-01-10 11:23:00,,0817.8,5.00,0.00,22.1,20.8,00.0,30.9,23.8,15.6,0000.0,0001.90,0001.00,0000.80
2023-01-10 11:24:00,,0817.9,5.01,0.00,22.1,20.8,00.0,30.9,23.8,15.6,0000.0,0001.85,0000.96,0000.76
2023-01-10 11:25:00,,0817.9,5.00,0.00,22.1,20.8,00.0,30.9,23.9,15.6,0000.0,0001.80,0000.91,0000.71
2023-01-10 11:26:00,,0817.8,4.99,0.00,22.1,20.8,00.0,30.9,23.8,15.6,0000.0,0001.72,0000.86,0000.66
2023-01-10 11:27:00,,0817.8,5.00,0.00,22.1,20.7,00.0,30.9,23.8,15.6,0000.0,0001.45,0000.83,0000.63
2023-01-10 11:28:00,,0817.8,5.01,0.00,22.0,20.7,00.0,30.9,23.8,15.4,0000.0,0001.16,0000.76,0000.59
2023-01-10 11:29:00,,0817.9,5.01,0.00,22.0,20.7,00.0,30.9,23.8,15.4,0000.0,0001.09,0000.70,0000.56
2023-01-10 11:30:00,,0817.8,5.01,0.00,22.0,20.7,00.0,30.9,23.8,15.4,0000.0,0002.23,0000.66,0000.52
2023-01-10 11:31:00,,0817.7,5.00,0.00,22.0,20.7,00.0,30.9,23.8,15.8,0000.0,0002.16,0000.60,0000.47
2023-01-10 11:32:00,,0817.6,4.99,0.00,22.0,20.6,00.0,30.9,23.7,15.9,0000.0,0002.20,0000.58,0000.44
2023-01-10 11:33:00,,0817.5,4.99,0.00,22.0,20.6,00.0,30.9,23.7,16.0,0000.0,0002.17,0000.57,0000.43
2023-01-10 11:34:00,,0817.7,5.00,0.00,22.0,20.6,00.0,30.9,23.7,16.0,0000.0,0002.19,0000.57,0000.42
2023-01-10 11:35:00,,0817.9,5.00,0.00,22.0,20.7,00.0,30.9,23.8,16.0,0000.0,0002.17,0000.56,0000.42
2023-01-10 11:36:00,,0818.0,5.00,0.00,22.0,20.7,00.0,30.9,23.8,16.0,0000.0,0002.16,0000.56,0000.42
2023-01-10 11:37:00,,0818.0,5.00,0.00,22.0,20.7,00.0,30.9,23.8,15.9,0000.0,0002.24,0000.59,0000.44
2023-01-10 11:38:00,,0818.0,5.00,0.00,22.0,20.7,00.0,30.9,23.8,15.5,0000.0,0002.32,0000.62,0000.46
2023-01-10 11:39:00,,0818.0,5.00,0.00,22.0,20.6,00.0,30.9,23.8,15.3,0000.0,0002.40,0000.65,0000.48
2023-01-10 11:40:00,,0818.0,5.00,0.00,22.0,20.6,00.0,30.9,23.7,15.9,0000.0,0002.42,0000.64,0000.46
2023-01-10 11:41:00,,0817.9,5.00,0.00,22.0,20.5,00.0,30.9,23.7,16.1,0000.0,0001.51,0000.63,0000.44
2023-01-10 11:42:00,,0817.8,5.00,0.00,21.9,20.5,00.0,30.9,23.7,16.2,0000.0,0001.15,0000.61,0000.43
2023-01-10 11:43:00,,0817.6,5.01,0.00,22.0,20.5,00.0,30.9,23.7,16.2,0000.0,0001.10,0000.60,0000.43
2023-01-10 11:44:00,,0817.7,5.01,0.00,21.9,20.5,00.0,30.9,23.7,16.3,0000.0,0001.10,0000.61,0000.43
2023-01-10 11:45:00,,0817.9,5.00,0.00,22.0,20.6,00.0,30.9,23.7,16.4,0000.0,0001.06,0000.59,0000.42
2023-01-10 11:46:00,,0818.0,4.99,0.00,22.0,20.6,00.0,30.8,23.7,16.4,0000.0,0001.01,0000.57,0000.41
2023-01-10 11:47:00,,0818.0,5.00,0.00,22.0,20.6,00.0,30.8,23.8,16.3,0000.0,0001.04,0000.57,0000.40
2023-01-10 11:48:00,,0818.0,5.00,0.00,22.0,20.7,00.0,30.8,23.7,16.2,0000.0,0001.02,0000.54,0000.39
2023-01-10 11:49:00,,0818.0,5.00,0.00,22.0,20.7,00.0,30.8,23.7,15.9,0000.0,0001.03,0000.54,0000.37
2023-01-10 11:50:00,,0818.0,5.00,0.00,22.0,20.7,00.0,30.8,23.7,16.0,0000.0,0000.94,0000.52,0000.36
2023-01-10 11:51:00,,0818.0,5.01,0.00,22.0,20.7,00.0,30.8,23.7,16.1,0000.0,0000.90,0000.51,0000.36
2023-01-10 11:52:00,,0818.0,5.00,0.00,22.0,20.8,00.0,30.8,23.7,16.2,0000.0,0000.87,0000.50,0000.36
2023-01-10 11:53:00,,0818.0,5.00,0.00,22.0,20.8,00.0,30.8,23.7,16.3,0000.0,0001.41,0000.48,0000.36
2023-01-10 11:54:00,,0818.0,5.00,0.00,22.0,20.8,00.0,30.8,23.8,16.6,0000.0,0002.07,0000.49,0000.36
2023-01-10 11:55:00,,0817.9,5.00,0.00,22.0,20.8,00.0,30.8,23.7,16.6,0000.0,0002.05,0000.48,0000.36
2023-01-10 11:56:00,,0817.8,5.00,0.00,22.0,20.8,00.0,30.8,23.8,16.6,0000.0,0002.06,0000.49,0000.37
2023-01-10 11:57:00,,0817.9,5.00,0.00,22.0,20.8,00.0,30.9,23.8,16.6,0000.0,0002.06,0000.48,0000.37
2023-01-10 11:58:00,,0817.8,5.00,0.00,22.0,20.8,00.0,30.9,23.8,16.6,0000.0,0002.06,0000.49,0000.37
2023-01-10 11:59:00,,0817.9,5.02,0.00,22.0,20.8,00.0,30.9,23.8,16.5,0000.0,0002.01,0000.48,0000.37
